owner,sensor,date,latitude,longitude,vertical_datum,wind_speed,wind_to_direction,wind_speed_of_gust,qcFlag 
TCOON,ioos:station:TCOON:003:1,2011-05-01T00:00:00Z,26.8015,-97.4706,0.0,11.4,150.0,12.9,'11111222,11111222,11111222' 
TCOON,ioos:station:TCOON:003:1,2011-05-01T02:00:00Z,26.8015,-97.4706,0.0,11.9,158.0,13.7,'11111222,11111222,11111222' 
TCOON,ioos:station:TCOON:003:1,2011-05-01T03:00:00Z,26.8015,-97.4706,0.0,11.8,158.0,13.9,'11111222,11111222,11111222' 
TCOON,ioos:station:TCOON:003:1,2011-05-01T04:00:00Z,26.8015,-97.4706,0.0,10.7,161.0,12.8,'11111222,11111222,11111222' 
TCOON,ioos:station:TCOON:003:1,2011-05-01T05:00:00Z,26.8015,-97.4706,0.0,11.4,153.0,12.9,'11111222,11111222,11111222' 
TCOON,ioos:station:TCOON:003:1,2011-05-01T06:00:00Z,26.8015,-97.4706,0.0,11.2,149.0,13.6,'11111222,11111222,11111222' 
TCOON,ioos:station:TCOON:003:1,2011-05-01T07:00:00Z,26.8015,-97.4706,0.0,11.7,145.0,13.5,'11111222,11111222,11111222' 
TCOON,ioos:station:TCOON:003:1,2011-05-01T08:00:00Z,26.8015,-97.4706,0.0,11.7,142.0,14.1,'11111222,11111222,11111222' 
TCOON,ioos:station:TCOON:003:1,2011-05-01T09:00:00Z,26.8015,-97.4706,0.0,11.5,150.0,13.8,'11111222,11111222,11111222' 
TCOON,ioos:station:TCOON:003:1,2011-05-01T10:00:00Z,26.8015,-97.4706,0.0,10.8,143.0,12.8,'11111222,11111222,11111222' 
TCOON,ioos:station:TCOON:003:1,2011-05-01T11:00:00Z,26.8015,-97.4706,0.0,11.5,145.0,13.8,'11111222,11111222,11111222' 
TCOON,ioos:station:TCOON:003:1,2011-05-01T12:00:00Z,26.8015,-97.4706,0.0,11.1,139.0,13.0,'11111222,11111222,11111222' 
TCOON,ioos:station:TCOON:003:1,2011-05-01T13:00:00Z,26.8015,-97.4706,0.0,13.3,140.0,16.1,'11111222,11111222,11111222' 
TCOON,ioos:station:TCOON:003:1,2011-05-01T14:00:00Z,26.8015,-97.4706,0.0,12.7,154.0,14.6,'11111222,11111222,11111222' 
TCOON,ioos:station:TCOON:003:1,2011-05-01T15:00:00Z,26.8015,-97.4706,0.0,12.5,147.0,15.6,'11111222,11111222,11111222' 
TCOON,ioos:station:TCOON:003:1,2011-05-01T16:00:00Z,26.8015,-97.4706,0.0,11.9,145.0,14.1,'11111222,11111222,11111222' 
TCOON,ioos:station:TCOON:003:1,2011-05-01T17:00:00Z,26.8015,-97.4706,0.0,14.4,142.0,17.1,'11111222,11111222,11111222' 
TCOON,ioos:station:TCOON:003:1,2011-05-01T18:00:00Z,26.8015,-97.4706,0.0,14.4,142.0,17.2,'11111222,11111222,11111222' 
TCOON,ioos:station:TCOON:003:1,2011-05-01T19:00:00Z,26.8015,-97.4706,0.0,14.5,142.0,17.2,'11111222,11111222,11111222' 
TCOON,ioos:station:TCOON:003:1,2011-05-01T20:00:00Z,26.8015,-97.4706,0.0,12.3,140.0,14.9,'11111222,11111222,11111222' 
TCOON,ioos:station:TCOON:003:1,2011-05-01T21:00:00Z,26.8015,-97.4706,0.0,14.3,141.0,17.3,'11111222,11111222,11111222' 
TCOON,ioos:station:TCOON:003:1,2011-05-01T22:00:00Z,26.8015,-97.4706,0.0,13.7,144.0,16.6,'11111222,11111222,11111222' 
TCOON,ioos:station:TCOON:003:1,2011-05-01T23:00:00Z,26.8015,-97.4706,0.0,12.2,143.0,14.5,'11111222,11111222,11111222' 
TCOON,ioos:station:TCOON:003:1,2011-05-02T00:00:00Z,26.8015,-97.4706,0.0,10.3,148.0,12.5,'11111222,11111222,11111222' 
TCOON,ioos:station:TCOON:003:1,2011-05-02T01:00:00Z,26.8015,-97.4706,0.0,11.0,146.0,13.2,'11111222,11111222,11111222' 
TCOON,ioos:station:TCOON:003:1,2011-05-02T02:00:00Z,26.8015,-97.4706,0.0,10.8,144.0,13.1,'11111222,11111222,11111222' 
TCOON,ioos:station:TCOON:003:1,2011-05-02T03:00:00Z,26.8015,-97.4706,0.0,10.0,145.0,11.3,'11111222,11111222,11111222' 
TCOON,ioos:station:TCOON:003:1,2011-05-02T04:00:00Z,26.8015,-97.4706,0.0,10.3,144.0,12.8,'11111222,11111222,11111222' 
TCOON,ioos:station:TCOON:003:1,2011-05-02T05:00:00Z,26.8015,-97.4706,0.0,10.6,150.0,12.4,'11111222,11111222,11111222' 
TCOON,ioos:station:TCOON:003:1,2011-05-02T06:00:00Z,26.8015,-97.4706,0.0,8.8,136.0,10.7,'11111222,11111222,11111222' 
TCOON,ioos:station:TCOON:003:1,2011-05-02T07:00:00Z,26.8015,-97.4706,0.0,8.1,132.0,9.4,'11111222,11111222,11111222' 
TCOON,ioos:station:TCOON:003:1,2011-05-02T08:00:00Z,26.8015,-97.4706,0.0,6.9,132.0,8.2,'11111222,11111222,11111222' 
TCOON,ioos:station:TCOON:003:1,2011-05-02T09:00:00Z,26.8015,-97.4706,0.0,3.7,100.0,4.3,'11111222,11111222,11111222' 
TCOON,ioos:station:TCOON:003:1,2011-05-02T10:00:00Z,26.8015,-97.4706,0.0,6.3,118.0,7.3,'11111222,11111222,11111222' 
TCOON,ioos:station:TCOON:003:1,2011-05-02T11:00:00Z,26.8015,-97.4706,0.0,5.3,121.0,6.1,'11111222,11111222,11111222' 
TCOON,ioos:station:TCOON:003:1,2011-05-02T12:00:00Z,26.8015,-97.4706,0.0,5.5,129.0,6.1,'11111222,11111222,11111222' 
TCOON,ioos:station:TCOON:003:1,2011-05-02T13:00:00Z,26.8015,-97.4706,0.0,5.1,162.0,5.8,'11111222,11111222,11111222' 
TCOON,ioos:station:TCOON:003:1,2011-05-02T14:00:00Z,26.8015,-97.4706,0.0,2.6,197.0,3.5,'11111222,11111222,11111222' 
TCOON,ioos:station:TCOON:003:1,2011-05-02T15:00:00Z,26.8015,-97.4706,0.0,12.0,332.0,14.2,'11111222,11111222,11111222' 
TCOON,ioos:station:TCOON:003:1,2011-05-02T16:00:00Z,26.8015,-97.4706,0.0,11.3,319.0,13.3,'11111222,11111222,11111222' 
TCOON,ioos:station:TCOON:003:1,2011-05-02T17:00:00Z,26.8015,-97.4706,0.0,10.5,330.0,12.7,'11111222,11111222,11111222' 
TCOON,ioos:station:TCOON:003:1,2011-05-02T18:00:00Z,26.8015,-97.4706,0.0,10.0,323.0,12.0,'11111222,11111222,11111222' 
TCOON,ioos:station:TCOON:003:1,2011-05-02T19:00:00Z,26.8015,-97.4706,0.0,9.6,326.0,11.2,'11111222,11111222,11111222' 
TCOON,ioos:station:TCOON:003:1,2011-05-02T20:00:00Z,26.8015,-97.4706,0.0,11.1,325.0,12.6,'11111222,11111222,11111222' 
TCOON,ioos:station:TCOON:003:1,2011-05-02T21:00:00Z,26.8015,-97.4706,0.0,9.8,331.0,11.2,'11111222,11111222,11111222' 
TCOON,ioos:station:TCOON:003:1,2011-05-02T22:00:00Z,26.8015,-97.4706,0.0,8.5,319.0,10.5,'11111222,11111222,11111222' 
TCOON,ioos:station:TCOON:003:1,2011-05-02T23:00:00Z,26.8015,-97.4706,0.0,10.7,334.0,12.6,'11111222,11111222,11111222' 
TCOON,ioos:station:TCOON:003:1,2011-05-03T00:00:00Z,26.8015,-97.4706,0.0,9.5,324.0,10.6,'11111222,11111222,11111222' 
TCOON,ioos:station:TCOON:003:1,2011-05-03T01:00:00Z,26.8015,-97.4706,0.0,11.2,331.0,12.6,'11111222,11111222,11111222' 
TCOON,ioos:station:TCOON:003:1,2011-05-03T02:00:00Z,26.8015,-97.4706,0.0,9.9,331.0,11.8,'11111222,11111222,11111222' 
TCOON,ioos:station:TCOON:003:1,2011-05-03T03:00:00Z,26.8015,-97.4706,0.0,12.4,333.0,14.8,'11111222,11111222,11111222' 
TCOON,ioos:station:TCOON:003:1,2011-05-03T04:00:00Z,26.8015,-97.4706,0.0,11.2,338.0,13.3,'11111222,11111222,11111222' 
TCOON,ioos:station:TCOON:003:1,2011-05-03T05:00:00Z,26.8015,-97.4706,0.0,13.2,342.0,15.4,'11111222,11111222,11111222' 
TCOON,ioos:station:TCOON:003:1,2011-05-03T06:00:00Z,26.8015,-97.4706,0.0,10.5,343.0,13.2,'11111222,11111222,11111222' 
TCOON,ioos:station:TCOON:003:1,2011-05-03T07:00:00Z,26.8015,-97.4706,0.0,10.5,344.0,13.1,'11111222,11111222,11111222' 
TCOON,ioos:station:TCOON:003:1,2011-05-03T08:00:00Z,26.8015,-97.4706,0.0,11.2,352.0,12.3,'11111222,11111222,11111222' 
TCOON,ioos:station:TCOON:003:1,2011-05-03T09:00:00Z,26.8015,-97.4706,0.0,9.3,338.0,11.2,'11111222,11111222,11111222' 
TCOON,ioos:station:TCOON:003:1,2011-05-03T10:00:00Z,26.8015,-97.4706,0.0,6.4,330.0,7.4,'11111222,11111222,11111222' 
TCOON,ioos:station:TCOON:003:1,2011-05-03T11:00:00Z,26.8015,-97.4706,0.0,8.6,330.0,9.9,'11111222,11111222,11111222' 
TCOON,ioos:station:TCOON:003:1,2011-05-03T12:00:00Z,26.8015,-97.4706,0.0,8.7,330.0,9.9,'11111222,11111222,11111222' 
TCOON,ioos:station:TCOON:003:1,2011-05-03T13:00:00Z,26.8015,-97.4706,0.0,9.3,313.0,10.9,'11111222,11111222,11111222' 
TCOON,ioos:station:TCOON:003:1,2011-05-03T14:00:00Z,26.8015,-97.4706,0.0,7.9,324.0,9.1,'11111222,11111222,11111222' 
TCOON,ioos:station:TCOON:003:1,2011-05-03T15:00:00Z,26.8015,-97.4706,0.0,7.2,342.0,8.4,'11111222,11111222,11111222' 
TCOON,ioos:station:TCOON:003:1,2011-05-03T16:00:00Z,26.8015,-97.4706,0.0,6.7,13.0,7.9,'11111222,11111222,11111222' 
TCOON,ioos:station:TCOON:003:1,2011-05-03T17:00:00Z,26.8015,-97.4706,0.0,7.4,9.0,9.6,'11111222,11111222,11111222' 
TCOON,ioos:station:TCOON:003:1,2011-05-03T18:00:00Z,26.8015,-97.4706,0.0,6.9,19.0,9.2,'11111222,11111222,11111222' 
TCOON,ioos:station:TCOON:003:1,2011-05-03T19:00:00Z,26.8015,-97.4706,0.0,6.5,22.0,8.7,'11111222,11111222,11111222' 
TCOON,ioos:station:TCOON:003:1,2011-05-03T20:00:00Z,26.8015,-97.4706,0.0,7.0,29.0,9.8,'11111222,11111222,11111222' 
TCOON,ioos:station:TCOON:003:1,2011-05-03T21:00:00Z,26.8015,-97.4706,0.0,7.8,42.0,10.3,'11111222,11111222,11111222' 
TCOON,ioos:station:TCOON:003:1,2011-05-03T22:00:00Z,26.8015,-97.4706,0.0,7.1,33.0,9.9,'11111222,11111222,11111222' 
TCOON,ioos:station:TCOON:003:1,2011-05-03T23:00:00Z,26.8015,-97.4706,0.0,6.6,38.0,8.1,'11111222,11111222,11111222' 
TCOON,ioos:station:TCOON:003:1,2011-05-04T00:00:00Z,26.8015,-97.4706,0.0,4.7,25.0,6.0,'11111222,11111222,11111222' 
TCOON,ioos:station:TCOON:003:1,2011-05-04T01:00:00Z,26.8015,-97.4706,0.0,4.4,33.0,5.4,'11111222,11111222,11111222' 
TCOON,ioos:station:TCOON:003:1,2011-05-04T02:00:00Z,26.8015,-97.4706,0.0,3.0,38.0,3.5,'11111222,11111222,11111222' 
TCOON,ioos:station:TCOON:003:1,2011-05-04T03:00:00Z,26.8015,-97.4706,0.0,3.0,52.0,3.3,'11111222,11111222,11111222' 
TCOON,ioos:station:TCOON:003:1,2011-05-04T04:00:00Z,26.8015,-97.4706,0.0,3.1,53.0,3.4,'11111222,11111222,11111222' 
TCOON,ioos:station:TCOON:003:1,2011-05-04T05:00:00Z,26.8015,-97.4706,0.0,3.0,28.0,3.3,'11111222,11111222,11111222' 
TCOON,ioos:station:TCOON:003:1,2011-05-04T06:00:00Z,26.8015,-97.4706,0.0,3.9,32.0,5.1,'11111222,11111222,11111222' 
TCOON,ioos:station:TCOON:003:1,2011-05-04T07:00:00Z,26.8015,-97.4706,0.0,3.7,36.0,4.1,'11111222,11111222,11111222' 
TCOON,ioos:station:TCOON:003:1,2011-05-04T08:00:00Z,26.8015,-97.4706,0.0,4.4,57.0,5.3,'11111222,11111222,11111222' 
TCOON,ioos:station:TCOON:003:1,2011-05-04T09:00:00Z,26.8015,-97.4706,0.0,5.0,58.0,6.4,'11111222,11111222,11111222' 
TCOON,ioos:station:TCOON:003:1,2011-05-04T10:00:00Z,26.8015,-97.4706,0.0,4.6,42.0,5.6,'11111222,11111222,11111222' 
TCOON,ioos:station:TCOON:003:1,2011-05-04T11:00:00Z,26.8015,-97.4706,0.0,5.5,342.0,6.5,'11111222,11111222,11111222' 
TCOON,ioos:station:TCOON:003:1,2011-05-04T12:00:00Z,26.8015,-97.4706,0.0,4.2,337.0,4.9,'11111222,11111222,11111222' 
TCOON,ioos:station:TCOON:003:1,2011-05-04T13:00:00Z,26.8015,-97.4706,0.0,6.2,41.0,8.2,'11111222,11111222,11111222' 
TCOON,ioos:station:TCOON:003:1,2011-05-04T14:00:00Z,26.8015,-97.4706,0.0,6.9,53.0,9.1,'11111222,11111222,11111222' 
TCOON,ioos:station:TCOON:003:1,2011-05-04T15:00:00Z,26.8015,-97.4706,0.0,7.2,66.0,9.3,'11111222,11111222,11111222' 
TCOON,ioos:station:TCOON:003:1,2011-05-04T16:00:00Z,26.8015,-97.4706,0.0,7.4,52.0,8.9,'11111222,11111222,11111222' 
TCOON,ioos:station:TCOON:003:1,2011-05-04T17:00:00Z,26.8015,-97.4706,0.0,5.9,73.0,7.0,'11111222,11111222,11111222' 
TCOON,ioos:station:TCOON:003:1,2011-05-04T18:00:00Z,26.8015,-97.4706,0.0,7.0,63.0,9.3,'11111222,11111222,11111222' 
TCOON,ioos:station:TCOON:003:1,2011-05-04T19:00:00Z,26.8015,-97.4706,0.0,8.0,56.0,10.1,'11111222,11111222,11111222' 
TCOON,ioos:station:TCOON:003:1,2011-05-04T22:00:00Z,26.8015,-97.4706,0.0,4.6,64.0,7.6,'11111222,11111222,11111222' 
TCOON,ioos:station:TCOON:003:1,2011-05-04T23:00:00Z,26.8015,-97.4706,0.0,4.6,59.0,6.1,'11111222,11111222,11111222' 
TCOON,ioos:station:TCOON:003:1,2011-05-05T00:00:00Z,26.8015,-97.4706,0.0,4.9,87.0,6.0,'11111222,11111222,11111222' 
TCOON,ioos:station:TCOON:003:1,2011-05-05T01:00:00Z,26.8015,-97.4706,0.0,4.4,82.0,5.6,'11111222,11111222,11111222' 
TCOON,ioos:station:TCOON:003:1,2011-05-05T02:00:00Z,26.8015,-97.4706,0.0,4.0,92.0,5.1,'11111222,11111222,11111222' 
TCOON,ioos:station:TCOON:003:1,2011-05-05T03:00:00Z,26.8015,-97.4706,0.0,4.0,96.0,4.8,'11111222,11111222,11111222' 
TCOON,ioos:station:TCOON:003:1,2011-05-05T05:00:00Z,26.8015,-97.4706,0.0,2.7,98.0,3.1,'11111222,11111222,11111222' 
TCOON,ioos:station:TCOON:003:1,2011-05-05T06:00:00Z,26.8015,-97.4706,0.0,1.2,98.0,1.3,'11111222,11111222,11111222' 
TCOON,ioos:station:TCOON:003:1,2011-05-05T07:00:00Z,26.8015,-97.4706,0.0,1.7,4.0,1.9,'11111222,11111222,11111222' 
TCOON,ioos:station:TCOON:003:1,2011-05-05T08:00:00Z,26.8015,-97.4706,0.0,2.3,349.0,2.5,'11111222,11111222,11111222' 
TCOON,ioos:station:TCOON:003:1,2011-05-05T09:00:00Z,26.8015,-97.4706,0.0,1.8,1.0,2.0,'11111222,11111222,11111222' 
TCOON,ioos:station:TCOON:003:1,2011-05-05T10:00:00Z,26.8015,-97.4706,0.0,1.1,341.0,1.3,'11111222,11111222,11111222' 
TCOON,ioos:station:TCOON:003:1,2011-05-05T11:00:00Z,26.8015,-97.4706,0.0,1.7,295.0,1.9,'11111222,11111222,11111222' 
TCOON,ioos:station:TCOON:003:1,2011-05-05T12:00:00Z,26.8015,-97.4706,0.0,1.1,298.0,1.2,'11111222,11111222,11111222' 
TCOON,ioos:station:TCOON:003:1,2011-05-05T13:00:00Z,26.8015,-97.4706,0.0,0.0,289.0,0.3,'11111222,11111222,11111222' 
TCOON,ioos:station:TCOON:003:1,2011-05-05T14:00:00Z,26.8015,-97.4706,0.0,1.9,145.0,2.4,'11111222,11111222,11111222' 
TCOON,ioos:station:TCOON:003:1,2011-05-05T15:00:00Z,26.8015,-97.4706,0.0,3.9,102.0,4.6,'11111222,11111222,11111222' 
TCOON,ioos:station:TCOON:003:1,2011-05-05T16:00:00Z,26.8015,-97.4706,0.0,5.1,100.0,6.2,'11111222,11111222,11111222' 
TCOON,ioos:station:TCOON:003:1,2011-05-05T17:00:00Z,26.8015,-97.4706,0.0,5.5,88.0,7.2,'11111222,11111222,11111222' 
TCOON,ioos:station:TCOON:003:1,2011-05-05T18:00:00Z,26.8015,-97.4706,0.0,6.2,91.0,7.8,'11111222,11111222,11111222' 
TCOON,ioos:station:TCOON:003:1,2011-05-05T19:00:00Z,26.8015,-97.4706,0.0,9.1,76.0,11.0,'11111222,11111222,11111222' 
TCOON,ioos:station:TCOON:003:1,2011-05-05T20:00:00Z,26.8015,-97.4706,0.0,6.9,89.0,8.4,'11111222,11111222,11111222' 
TCOON,ioos:station:TCOON:003:1,2011-05-05T21:00:00Z,26.8015,-97.4706,0.0,7.7,88.0,9.5,'11111222,11111222,11111222' 
TCOON,ioos:station:TCOON:003:1,2011-05-05T22:00:00Z,26.8015,-97.4706,0.0,8.1,90.0,10.2,'11111222,11111222,11111222' 
TCOON,ioos:station:TCOON:003:1,2011-05-05T23:00:00Z,26.8015,-97.4706,0.0,7.2,84.0,9.0,'11111222,11111222,11111222' 
TCOON,ioos:station:TCOON:003:1,2011-05-06T00:00:00Z,26.8015,-97.4706,0.0,6.8,93.0,8.5,'11111222,11111222,11111222' 
TCOON,ioos:station:TCOON:003:1,2011-05-06T01:00:00Z,26.8015,-97.4706,0.0,6.5,97.0,7.4,'11111222,11111222,11111222' 
TCOON,ioos:station:TCOON:003:1,2011-05-06T02:00:00Z,26.8015,-97.4706,0.0,6.5,106.0,7.4,'11111222,11111222,11111222' 
TCOON,ioos:station:TCOON:003:1,2011-05-06T03:00:00Z,26.8015,-97.4706,0.0,5.5,102.0,6.3,'11111222,11111222,11111222' 
TCOON,ioos:station:TCOON:003:1,2011-05-06T04:00:00Z,26.8015,-97.4706,0.0,5.4,98.0,6.2,'11111222,11111222,11111222' 
TCOON,ioos:station:TCOON:003:1,2011-05-06T05:00:00Z,26.8015,-97.4706,0.0,4.5,105.0,5.3,'11111222,11111222,11111222' 
TCOON,ioos:station:TCOON:003:1,2011-05-06T06:00:00Z,26.8015,-97.4706,0.0,4.2,103.0,5.0,'11111222,11111222,11111222' 
TCOON,ioos:station:TCOON:003:1,2011-05-06T07:00:00Z,26.8015,-97.4706,0.0,3.7,103.0,4.6,'11111222,11111222,11111222' 
TCOON,ioos:station:TCOON:003:1,2011-05-06T08:00:00Z,26.8015,-97.4706,0.0,3.9,110.0,4.5,'11111222,11111222,11111222' 
TCOON,ioos:station:TCOON:003:1,2011-05-06T09:00:00Z,26.8015,-97.4706,0.0,3.3,120.0,3.6,'11111222,11111222,11111222' 
TCOON,ioos:station:TCOON:003:1,2011-05-06T10:00:00Z,26.8015,-97.4706,0.0,2.3,110.0,2.7,'11111222,11111222,11111222' 
TCOON,ioos:station:TCOON:003:1,2011-05-06T11:00:00Z,26.8015,-97.4706,0.0,2.4,106.0,2.7,'11111222,11111222,11111222' 
TCOON,ioos:station:TCOON:003:1,2011-05-06T12:00:00Z,26.8015,-97.4706,0.0,3.3,105.0,4.0,'11111222,11111222,11111222' 
TCOON,ioos:station:TCOON:003:1,2011-05-06T13:00:00Z,26.8015,-97.4706,0.0,5.1,105.0,6.2,'11111222,11111222,11111222' 
TCOON,ioos:station:TCOON:003:1,2011-05-06T14:00:00Z,26.8015,-97.4706,0.0,5.4,104.0,6.2,'11111222,11111222,11111222' 
TCOON,ioos:station:TCOON:003:1,2011-05-06T15:00:00Z,26.8015,-97.4706,0.0,6.3,117.0,7.8,'11111222,11111222,11111222' 
TCOON,ioos:station:TCOON:003:1,2011-05-06T16:00:00Z,26.8015,-97.4706,0.0,6.7,117.0,8.4,'11111222,11111222,11111222' 
TCOON,ioos:station:TCOON:003:1,2011-05-06T17:00:00Z,26.8015,-97.4706,0.0,7.6,117.0,8.8,'11111222,11111222,11111222' 
TCOON,ioos:station:TCOON:003:1,2011-05-06T18:00:00Z,26.8015,-97.4706,0.0,8.1,129.0,9.8,'11111222,11111222,11111222' 
TCOON,ioos:station:TCOON:003:1,2011-05-06T19:00:00Z,26.8015,-97.4706,0.0,8.5,111.0,9.7,'11111222,11111222,11111222' 
TCOON,ioos:station:TCOON:003:1,2011-05-06T20:00:00Z,26.8015,-97.4706,0.0,7.9,111.0,9.8,'11111222,11111222,11111222' 
TCOON,ioos:station:TCOON:003:1,2011-05-06T21:00:00Z,26.8015,-97.4706,0.0,7.9,119.0,10.0,'11111222,11111222,11111222' 
TCOON,ioos:station:TCOON:003:1,2011-05-06T22:00:00Z,26.8015,-97.4706,0.0,9.0,113.0,10.5,'11111222,11111222,11111222' 
TCOON,ioos:station:TCOON:003:1,2011-05-06T23:00:00Z,26.8015,-97.4706,0.0,8.9,120.0,10.2,'11111222,11111222,11111222' 
TCOON,ioos:station:TCOON:003:1,2011-05-07T00:00:00Z,26.8015,-97.4706,0.0,7.7,124.0,9.1,'11111222,11111222,11111222' 
TCOON,ioos:station:TCOON:003:1,2011-05-07T01:00:00Z,26.8015,-97.4706,0.0,9.4,123.0,10.8,'11111222,11111222,11111222' 
TCOON,ioos:station:TCOON:003:1,2011-05-07T02:00:00Z,26.8015,-97.4706,0.0,9.0,129.0,10.1,'11111222,11111222,11111222' 
TCOON,ioos:station:TCOON:003:1,2011-05-07T03:00:00Z,26.8015,-97.4706,0.0,8.3,131.0,10.1,'11111222,11111222,11111222' 
TCOON,ioos:station:TCOON:003:1,2011-05-07T04:00:00Z,26.8015,-97.4706,0.0,7.3,143.0,9.1,'11111222,11111222,11111222' 
TCOON,ioos:station:TCOON:003:1,2011-05-07T05:00:00Z,26.8015,-97.4706,0.0,7.6,143.0,8.6,'11111222,11111222,11111222' 
TCOON,ioos:station:TCOON:003:1,2011-05-07T07:00:00Z,26.8015,-97.4706,0.0,5.7,143.0,6.8,'11111222,11111222,11111222' 
TCOON,ioos:station:TCOON:003:1,2011-05-07T08:00:00Z,26.8015,-97.4706,0.0,7.4,151.0,8.4,'11111222,11111222,11111222' 
TCOON,ioos:station:TCOON:003:1,2011-05-07T09:00:00Z,26.8015,-97.4706,0.0,6.7,160.0,8.0,'11111222,11111222,11111222' 
TCOON,ioos:station:TCOON:003:1,2011-05-07T10:00:00Z,26.8015,-97.4706,0.0,8.4,166.0,9.8,'11111222,11111222,11111222' 
TCOON,ioos:station:TCOON:003:1,2011-05-07T11:00:00Z,26.8015,-97.4706,0.0,8.0,167.0,9.1,'11111222,11111222,11111222' 
TCOON,ioos:station:TCOON:003:1,2011-05-07T12:00:00Z,26.8015,-97.4706,0.0,4.9,138.0,6.0,'11111222,11111222,11111222' 
TCOON,ioos:station:TCOON:003:1,2011-05-07T13:00:00Z,26.8015,-97.4706,0.0,5.8,151.0,6.8,'11111222,11111222,11111222' 
TCOON,ioos:station:TCOON:003:1,2011-05-07T14:00:00Z,26.8015,-97.4706,0.0,6.6,150.0,7.3,'11111222,11111222,11111222' 
TCOON,ioos:station:TCOON:003:1,2011-05-07T15:00:00Z,26.8015,-97.4706,0.0,7.6,146.0,8.7,'11111222,11111222,11111222' 
TCOON,ioos:station:TCOON:003:1,2011-05-07T16:00:00Z,26.8015,-97.4706,0.0,7.7,134.0,9.4,'11111222,11111222,11111222' 
TCOON,ioos:station:TCOON:003:1,2011-05-07T17:00:00Z,26.8015,-97.4706,0.0,7.6,131.0,9.1,'11111222,11111222,11111222' 
TCOON,ioos:station:TCOON:003:1,2011-05-07T18:00:00Z,26.8015,-97.4706,0.0,9.8,131.0,11.8,'11111222,11111222,11111222' 
TCOON,ioos:station:TCOON:003:1,2011-05-07T19:00:00Z,26.8015,-97.4706,0.0,9.5,136.0,11.3,'11111222,11111222,11111222' 
TCOON,ioos:station:TCOON:003:1,2011-05-07T20:00:00Z,26.8015,-97.4706,0.0,10.2,128.0,11.5,'11111222,11111222,11111222' 
TCOON,ioos:station:TCOON:003:1,2011-05-07T21:00:00Z,26.8015,-97.4706,0.0,10.5,125.0,12.8,'11111222,11111222,11111222' 
TCOON,ioos:station:TCOON:003:1,2011-05-07T22:00:00Z,26.8015,-97.4706,0.0,9.9,127.0,12.2,'11111222,11111222,11111222' 
TCOON,ioos:station:TCOON:003:1,2011-05-07T23:00:00Z,26.8015,-97.4706,0.0,11.3,132.0,13.0,'11111222,11111222,11111222' 
TCOON,ioos:station:TCOON:003:1,2011-05-08T00:00:00Z,26.8015,-97.4706,0.0,10.4,132.0,12.8,'11111222,11111222,11111222' 
TCOON,ioos:station:TCOON:003:1,2011-05-08T01:00:00Z,26.8015,-97.4706,0.0,10.0,138.0,11.7,'11111222,11111222,11111222' 
TCOON,ioos:station:TCOON:003:1,2011-05-08T02:00:00Z,26.8015,-97.4706,0.0,9.8,143.0,11.0,'11111222,11111222,11111222' 
TCOON,ioos:station:TCOON:003:1,2011-05-08T03:00:00Z,26.8015,-97.4706,0.0,9.2,140.0,10.6,'11111222,11111222,11111222' 
TCOON,ioos:station:TCOON:003:1,2011-05-08T04:00:00Z,26.8015,-97.4706,0.0,10.1,147.0,12.6,'11111222,11111222,11111222' 
TCOON,ioos:station:TCOON:003:1,2011-05-08T05:00:00Z,26.8015,-97.4706,0.0,10.4,165.0,12.7,'11111222,11111222,11111222' 
TCOON,ioos:station:TCOON:003:1,2011-05-08T06:00:00Z,26.8015,-97.4706,0.0,10.1,158.0,12.3,'11111222,11111222,11111222' 
TCOON,ioos:station:TCOON:003:1,2011-05-08T07:00:00Z,26.8015,-97.4706,0.0,9.5,165.0,11.0,'11111222,11111222,11111222' 
TCOON,ioos:station:TCOON:003:1,2011-05-08T08:00:00Z,26.8015,-97.4706,0.0,9.8,158.0,11.2,'11111222,11111222,11111222' 
TCOON,ioos:station:TCOON:003:1,2011-05-08T09:00:00Z,26.8015,-97.4706,0.0,10.4,160.0,11.8,'11111222,11111222,11111222' 
TCOON,ioos:station:TCOON:003:1,2011-05-08T10:00:00Z,26.8015,-97.4706,0.0,9.5,159.0,11.7,'11111222,11111222,11111222' 
TCOON,ioos:station:TCOON:003:1,2011-05-08T11:00:00Z,26.8015,-97.4706,0.0,10.4,158.0,12.0,'11111222,11111222,11111222' 
TCOON,ioos:station:TCOON:003:1,2011-05-08T12:00:00Z,26.8015,-97.4706,0.0,9.7,157.0,11.1,'11111222,11111222,11111222' 
TCOON,ioos:station:TCOON:003:1,2011-05-08T13:00:00Z,26.8015,-97.4706,0.0,8.4,156.0,11.3,'11111222,11111222,11111222' 
TCOON,ioos:station:TCOON:003:1,2011-05-08T14:00:00Z,26.8015,-97.4706,0.0,9.1,148.0,10.4,'11111222,11111222,11111222' 
TCOON,ioos:station:TCOON:003:1,2011-05-08T15:00:00Z,26.8015,-97.4706,0.0,10.1,140.0,11.5,'11111222,11111222,11111222' 
TCOON,ioos:station:TCOON:003:1,2011-05-08T16:00:00Z,26.8015,-97.4706,0.0,10.3,142.0,12.1,'11111222,11111222,11111222' 
TCOON,ioos:station:TCOON:003:1,2011-05-08T17:00:00Z,26.8015,-97.4706,0.0,11.1,139.0,12.7,'11111222,11111222,11111222' 
TCOON,ioos:station:TCOON:003:1,2011-05-08T18:00:00Z,26.8015,-97.4706,0.0,11.5,139.0,13.2,'11111222,11111222,11111222' 
TCOON,ioos:station:TCOON:003:1,2011-05-08T19:00:00Z,26.8015,-97.4706,0.0,11.5,132.0,13.3,'11111222,11111222,11111222' 
TCOON,ioos:station:TCOON:003:1,2011-05-08T20:00:00Z,26.8015,-97.4706,0.0,11.5,127.0,13.0,'11111222,11111222,11111222' 
TCOON,ioos:station:TCOON:003:1,2011-05-08T21:00:00Z,26.8015,-97.4706,0.0,9.8,136.0,12.1,'11111222,11111222,11111222' 
TCOON,ioos:station:TCOON:003:1,2011-05-08T22:00:00Z,26.8015,-97.4706,0.0,11.2,137.0,13.4,'11111222,11111222,11111222' 
TCOON,ioos:station:TCOON:003:1,2011-05-08T23:00:00Z,26.8015,-97.4706,0.0,10.1,136.0,12.6,'11111222,11111222,11111222' 
TCOON,ioos:station:TCOON:003:1,2011-05-09T00:00:00Z,26.8015,-97.4706,0.0,11.2,138.0,13.0,'11111222,11111222,11111222' 
TCOON,ioos:station:TCOON:003:1,2011-05-09T01:00:00Z,26.8015,-97.4706,0.0,11.1,141.0,12.6,'11111222,11111222,11111222' 
TCOON,ioos:station:TCOON:003:1,2011-05-09T02:00:00Z,26.8015,-97.4706,0.0,10.2,142.0,12.0,'11111222,11111222,11111222' 
TCOON,ioos:station:TCOON:003:1,2011-05-09T03:00:00Z,26.8015,-97.4706,0.0,10.6,146.0,12.7,'11111222,11111222,11111222' 
TCOON,ioos:station:TCOON:003:1,2011-05-09T04:00:00Z,26.8015,-97.4706,0.0,9.8,139.0,11.7,'11111222,11111222,11111222' 
TCOON,ioos:station:TCOON:003:1,2011-05-09T05:00:00Z,26.8015,-97.4706,0.0,9.6,139.0,10.7,'11111222,11111222,11111222' 
TCOON,ioos:station:TCOON:003:1,2011-05-09T06:00:00Z,26.8015,-97.4706,0.0,10.8,143.0,12.5,'11111222,11111222,11111222' 
TCOON,ioos:station:TCOON:003:1,2011-05-09T07:00:00Z,26.8015,-97.4706,0.0,10.5,142.0,12.2,'11111222,11111222,11111222' 
TCOON,ioos:station:TCOON:003:1,2011-05-09T08:00:00Z,26.8015,-97.4706,0.0,10.6,148.0,13.5,'11111222,11111222,11111222' 
TCOON,ioos:station:TCOON:003:1,2011-05-09T09:00:00Z,26.8015,-97.4706,0.0,9.5,147.0,11.0,'11111222,11111222,11111222' 
TCOON,ioos:station:TCOON:003:1,2011-05-09T10:00:00Z,26.8015,-97.4706,0.0,11.1,141.0,12.8,'11111222,11111222,11111222' 
TCOON,ioos:station:TCOON:003:1,2011-05-09T11:00:00Z,26.8015,-97.4706,0.0,12.7,141.0,15.6,'11111222,11111222,11111222' 
TCOON,ioos:station:TCOON:003:1,2011-05-09T12:00:00Z,26.8015,-97.4706,0.0,10.4,145.0,12.3,'11111222,11111222,11111222' 
TCOON,ioos:station:TCOON:003:1,2011-05-09T13:00:00Z,26.8015,-97.4706,0.0,12.1,145.0,13.9,'11111222,11111222,11111222' 
TCOON,ioos:station:TCOON:003:1,2011-05-09T14:00:00Z,26.8015,-97.4706,0.0,10.9,147.0,13.2,'11111222,11111222,11111222' 
TCOON,ioos:station:TCOON:003:1,2011-05-09T15:00:00Z,26.8015,-97.4706,0.0,11.8,143.0,14.6,'11111222,11111222,11111222' 